Home   Weather   Chicago   Past weeks

Flag for USA Past Weather in Chicago, Illinois, USA — Yesterday and Last 2 Weeks

Now
63 °F

Fog.


Feels Like: 63 °F
Forecast: 64 / 66 °F
Wind: 21 mph from Northeast

Location: Chicago Midway Airport

Current Time: Sep 29, 2016 at 1:44:17 PM

Latest Report: Sep 29, 2016 at 12:53 PM


Visibility: 2 mi

Pressure: 30.15 "Hg

Humidity: 87%

Dew Point: 59 °F

Location of ChicagoLocation

Past Weather in Chicago — Graph

°F

Chicago Temperature Yesterday

Maximum temperature yesterday: 60 °F (at 12:53 PM)
Minimum temperature yesterday: 52 °F (at 7:53 AM)
Average temperature yesterday: 56 °F

High & Low Weather Summary for the Past Weeks

 TemperatureHumidityPressure
High89 °F (Sep 19, 3:53 PM)90% (Sep 17, 3:53 AM)30.24 "Hg (Sep 17, 3:53 AM)
Low52 °F (Sep 28, 7:53 AM)21% (Sep 27, 12:53 PM)29.74 "Hg (Sep 27, 2:53 PM)
Average71 °F62%30.01 "Hg
* Reported Sep 14 11:53 AM — Sep 29 11:53 AM, Chicago, Weather by CustomWeather, © 2016

Note: Actual official high and low records may vary slightly from our data, if they occured in-between our weather recording intervals... More about our weather records

Advertising

Chicago Weather History for the Previous 24 Hours

Scroll right to see more
 ConditionsComfort  
Time TempWeatherWind HumidityBarometerVisibility
11:53 AM
Thu, Sep 29
65 °FLight rain. Fog.17 mph78%30.16 "Hg5 mi
10:53 AM65 °FMostly cloudy.16 mph78%30.15 "Hg10 mi
9:53 AM64 °FLight rain. Cloudy.17 mph81%30.14 "Hg10 mi
8:53 AM65 °FMostly cloudy.18 mph76%30.12 "Hg10 mi
7:53 AM62 °FMostly cloudy.12 mph80%30.11 "Hg10 mi
6:53 AM64 °FMostly cloudy.13 mph75%30.10 "Hg10 mi
5:53 AM64 °FMostly cloudy.21 mph75%30.08 "Hg10 mi
4:53 AM64 °FMostly cloudy.16 mph75%30.06 "Hg10 mi
3:53 AM62 °FMostly cloudy.10 mph80%30.05 "Hg10 mi
2:53 AM61 °FMostly cloudy.15 mph83%30.05 "Hg10 mi
1:53 AM60 °FMostly cloudy.17 mph83%30.04 "Hg10 mi
12:53 AM63 °FMostly cloudy.10 mph73%30.04 "Hg10 mi
11:53 PM
Wed, Sep 28
60 °FOvercast.10 mph83%30.06 "Hg10 mi
10:53 PM59 °FMostly cloudy.12 mph87%30.05 "Hg10 mi
10:00 PM57 °FLight rain. Mostly cloudy.13 mph87%30.06 "Hg9 mi
8:59 PM56 °FRain. Fog.9 mph87%30.05 "Hg5 mi
7:53 PM56 °FLight rain. Fog.13 mph87%30.06 "Hg5 mi
6:53 PM57 °FRain. Mostly cloudy.13 mph83%30.04 "Hg9 mi
5:53 PM59 °FRain. Broken clouds.12 mph75%30.00 "Hg9 mi
4:53 PM58 °FCloudy.14 mph75%29.99 "Hg10 mi
3:53 PM56 °FMostly cloudy.9 mph84%29.97 "Hg10 mi
2:53 PM58 °FLight rain. More clouds than sun.16 mph78%29.94 "Hg10 mi
1:53 PM58 °FLight rain. Mostly cloudy.14 mph72%29.92 "Hg9 mi
Weather by CustomWeather, © 2016

See weather overviewHow to use our weather pages